GOES 7 [-]

Last updated on July 6, 2021, 3:23 p.m. UTC

1 17561U 87022A   21186.71718319 -.00000147  00000-0  00000-0 0  9997
2 17561  14.5198 351.4924 0007082  50.1373 132.7172  0.99908447108905
UTC
Height (km)
Latitude
Longitude
Inclination
Orbital Period
UTC large
Height (km)
Speed (km/s)
/
Latitude / Longitude
Inclination (degrees)
Orbital Period (minutes)
Azimuth
Elevation
Range (km)
Doppler Factor
iOS Compass Heading
iOS Angle